Time,TemperatureF,DewpointF,PressureIn,WindDirection,WindDirectionDegrees,WindSpeedMPH,WindSpeedGustMPH,Humidity,HourlyPrecipIn,Conditions,Clouds,dailyrainin,SoftwareType,DateUTC
2013-01-09 00:00:00,71.3,68.9,30.10,ESE,104,0.0,0.0,92,0.00,,,0.00,Wunderground PWS Mod,2013-01-09 05:00:00,
2013-01-09 00:04:00,71.5,69.1,30.09,ESE,104,0.0,0.0,92,0.00,,,0.00,Wunderground PWS Mod,2013-01-09 05:04:00,
2013-01-09 00:10:00,71.5,69.1,30.09,ESE,104,0.0,0.0,92,0.00,,,0.00,Wunderground PWS Mod,2013-01-09 05:10:00,
2013-01-09 00:16:00,71.5,69.1,30.09,ESE,104,0.0,0.0,92,0.00,,,0.00,Wunderground PWS Mod,2013-01-09 05:16:00,
2013-01-09 00:18:00,71.3,68.9,30.09,N/A,-737280,0.0,0.0,92,0.00,,,0.00,Wunderground PWS Mod,2013-01-09 05:18:00,
2013-01-09 00:22:00,71.5,69.1,30.09,ESE,104,0.0,0.0,92,0.00,,,0.00,Wunderground PWS Mod,2013-01-09 05:22:00,
2013-01-09 00:28:00,71.3,68.9,30.09,ESE,104,0.0,0.0,92,0.00,,,0.00,Wunderground PWS Mod,2013-01-09 05:28:00,
2013-01-09 00:34:00,71.3,68.9,30.09,ESE,104,0.0,0.0,92,0.00,,,0.00,Wunderground PWS Mod,2013-01-09 05:34:00,
2013-01-09 00:36:00,71.3,68.9,30.09,ESE,104,0.0,0.0,92,0.00,,,0.00,Wunderground PWS Mod,2013-01-09 05:36:00,
2013-01-09 00:42:00,71.3,68.9,30.09,ESE,104,0.0,0.0,92,0.00,,,0.00,Wunderground PWS Mod,2013-01-09 05:42:00,
2013-01-09 00:48:00,71.3,69.2,30.09,ESE,104,0.0,0.0,93,0.00,,,0.00,Wunderground PWS Mod,2013-01-09 05:48:00,
2013-01-09 00:50:00,71.3,69.2,30.09,N/A,-737280,0.0,0.0,93,0.00,,,0.00,Wunderground PWS Mod,2013-01-09 05:50:00,
2013-01-09 00:54:00,71.3,69.2,30.09,SE,146,0.0,1.0,93,0.00,,,0.00,Wunderground PWS Mod,2013-01-09 05:54:00,
2013-01-09 01:00:00,71.3,69.2,30.09,SE,146,0.0,0.0,93,0.00,,,0.00,Wunderground PWS Mod,2013-01-09 06:00:00,
2013-01-09 01:06:00,71.3,69.2,30.09,SE,146,0.0,0.0,93,0.00,,,0.00,Wunderground PWS Mod,2013-01-09 06:06:00,
2013-01-09 01:12:00,71.1,69.0,30.09,SE,146,0.0,0.0,93,0.00,,,0.00,Wunderground PWS Mod,2013-01-09 06:12:00,
2013-01-09 01:14:00,70.9,68.8,30.09,N/A,-737280,0.0,0.0,93,0.00,,,0.00,Wunderground PWS Mod,2013-01-09 06:14:00,
2013-01-09 01:18:00,71.1,69.0,30.09,SE,146,0.0,0.0,93,0.00,,,0.00,Wunderground PWS Mod,2013-01-09 06:18:00,
2013-01-09 01:24:00,71.1,69.0,30.09,SE,146,0.0,0.0,93,0.00,,,0.00,Wunderground PWS Mod,2013-01-09 06:24:00,
2013-01-09 01:30:00,70.9,68.8,30.09,SE,146,0.0,0.0,93,0.00,,,0.00,Wunderground PWS Mod,2013-01-09 06:30:00,
2013-01-09 01:36:00,70.9,68.8,30.10,SE,146,0.0,0.0,93,0.00,,,0.00,Wunderground PWS Mod,2013-01-09 06:36:00,
2013-01-09 01:42:00,70.9,68.8,30.10,SE,146,0.0,0.0,93,0.00,,,0.00,Wunderground PWS Mod,2013-01-09 06:42:00,
2013-01-09 01:44:00,70.8,68.7,30.10,N/A,-737280,0.0,0.0,93,0.00,,,0.00,Wunderground PWS Mod,2013-01-09 06:44:00,
2013-01-09 01:48:00,70.9,68.8,30.10,SE,146,0.0,0.0,93,0.00,,,0.00,Wunderground PWS Mod,2013-01-09 06:48:00,
2013-01-09 01:54:00,70.8,68.7,30.10,SE,146,0.0,0.0,93,0.00,,,0.00,Wunderground PWS Mod,2013-01-09 06:54:00,
2013-01-09 02:00:00,70.8,68.7,30.10,SE,146,0.0,0.0,93,0.00,,,0.00,Wunderground PWS Mod,2013-01-09 07:00:00,
2013-01-09 02:06:00,70.8,68.7,30.10,SE,146,0.0,0.0,93,0.00,,,0.00,Wunderground PWS Mod,2013-01-09 07:06:00,
2013-01-09 02:12:00,70.6,68.5,30.10,SE,146,0.0,0.0,93,0.00,,,0.00,Wunderground PWS Mod,2013-01-09 07:12:00,
2013-01-09 02:18:00,70.8,68.7,30.10,SE,146,0.0,0.0,93,0.00,,,0.00,Wunderground PWS Mod,2013-01-09 07:18:00,
2013-01-09 02:24:00,70.8,69.0,30.10,SE,146,0.0,0.0,94,0.00,,,0.00,Wunderground PWS Mod,2013-01-09 07:24:00,
2013-01-09 02:30:00,70.8,68.7,30.10,SE,146,0.0,0.0,93,0.00,,,0.00,Wunderground PWS Mod,2013-01-09 07:30:00,
2013-01-09 02:36:00,70.9,69.1,30.11,SE,146,0.0,0.0,94,0.00,,,0.00,Wunderground PWS Mod,2013-01-09 07:36:00,
2013-01-09 02:42:00,70.9,69.1,30.11,SE,146,0.0,0.0,94,0.00,,,0.00,Wunderground PWS Mod,2013-01-09 07:42:00,
2013-01-09 02:48:00,70.9,69.1,30.11,SE,146,0.0,0.0,94,0.00,,,0.00,Wunderground PWS Mod,2013-01-09 07:48:00,
2013-01-09 02:50:00,71.1,69.3,30.11,N/A,-737280,0.0,0.0,94,0.00,,,0.00,Wunderground PWS Mod,2013-01-09 07:50:00,
2013-01-09 02:54:00,71.1,69.3,30.11,SE,146,0.0,0.0,94,0.00,,,0.00,Wunderground PWS Mod,2013-01-09 07:54:00,
2013-01-09 03:00:00,71.1,69.3,30.11,SE,146,0.0,0.0,94,0.00,,,0.00,Wunderground PWS Mod,2013-01-09 08:00:00,
2013-01-09 03:06:00,71.1,69.3,30.11,SE,146,0.0,0.0,94,0.00,,,0.00,Wunderground PWS Mod,2013-01-09 08:06:00,
2013-01-09 03:12:00,71.3,69.5,30.11,SE,146,0.0,0.0,94,0.00,,,0.00,Wunderground PWS Mod,2013-01-09 08:12:00,
2013-01-09 03:16:00,71.1,69.3,30.11,N/A,-737280,0.0,0.0,94,0.00,,,0.00,Wunderground PWS Mod,2013-01-09 08:16:00,
2013-01-09 03:18:00,71.3,69.5,30.11,SE,146,0.0,0.0,94,0.00,,,0.00,Wunderground PWS Mod,2013-01-09 08:18:00,
2013-01-09 03:24:00,71.1,69.3,30.11,SE,146,0.0,0.0,94,0.00,,,0.00,Wunderground PWS Mod,2013-01-09 08:24:00,
2013-01-09 03:30:00,71.1,69.3,30.11,SE,146,0.0,0.0,94,0.00,,,0.00,Wunderground PWS Mod,2013-01-09 08:30:00,
2013-01-09 03:36:00,71.1,69.3,30.11,SE,146,0.0,0.0,94,0.00,,,0.00,Wunderground PWS Mod,2013-01-09 08:36:00,
2013-01-09 03:42:00,71.1,69.3,30.11,SE,146,0.0,0.0,94,0.00,,,0.00,Wunderground PWS Mod,2013-01-09 08:42:00,
2013-01-09 03:46:00,70.8,69.0,30.11,N/A,-737280,0.0,0.0,94,0.00,,,0.00,Wunderground PWS Mod,2013-01-09 08:46:00,
2013-01-09 03:48:00,70.9,69.1,30.11,SE,146,0.0,0.0,94,0.00,,,0.00,Wunderground PWS Mod,2013-01-09 08:48:00,
2013-01-09 03:54:00,70.9,69.1,30.11,SE,146,0.0,0.0,94,0.00,,,0.00,Wunderground PWS Mod,2013-01-09 08:54:00,
2013-01-09 04:00:00,70.8,69.0,30.11,SE,146,0.0,0.0,94,0.00,,,0.00,Wunderground PWS Mod,2013-01-09 09:00:00,
2013-01-09 04:06:00,70.8,69.0,30.11,SE,146,0.0,0.0,94,0.00,,,0.00,Wunderground PWS Mod,2013-01-09 09:06:00,
2013-01-09 04:12:00,70.6,68.8,30.11,SE,146,0.0,0.0,94,0.00,,,0.00,Wunderground PWS Mod,2013-01-09 09:12:00,
2013-01-09 04:18:00,70.6,68.8,30.11,SE,146,0.0,0.0,94,0.00,,,0.00,Wunderground PWS Mod,2013-01-09 09:18:00,
2013-01-09 04:24:00,70.6,68.8,30.11,SE,146,0.0,0.0,94,0.00,,,0.00,Wunderground PWS Mod,2013-01-09 09:24:00,
2013-01-09 04:30:00,70.4,68.6,30.11,SE,146,0.0,0.0,94,0.00,,,0.00,Wunderground PWS Mod,2013-01-09 09:30:00,
2013-01-09 04:36:00,70.4,68.6,30.11,SE,146,0.0,0.0,94,0.00,,,0.00,Wunderground PWS Mod,2013-01-09 09:36:00,
2013-01-09 04:42:00,70.3,68.5,30.11,SE,146,0.0,0.0,94,0.00,,,0.00,Wunderground PWS Mod,2013-01-09 09:42:00,
2013-01-09 04:48:00,70.1,68.3,30.11,SE,146,0.0,0.0,94,0.00,,,0.00,Wunderground PWS Mod,2013-01-09 09:48:00,
2013-01-09 04:54:00,69.9,68.1,30.11,SE,146,0.0,0.0,94,0.00,,,0.00,Wunderground PWS Mod,2013-01-09 09:54:00,
2013-01-09 05:00:00,69.9,68.1,30.11,SE,146,0.0,0.0,94,0.00,,,0.00,Wunderground PWS Mod,2013-01-09 10:00:00,
2013-01-09 05:06:00,69.8,68.0,30.11,SE,146,0.0,0.0,94,0.00,,,0.00,Wunderground PWS Mod,2013-01-09 10:06:00,
2013-01-09 05:08:00,69.8,68.0,30.12,N/A,-737280,0.0,0.0,94,0.00,,,0.00,Wunderground PWS Mod,2013-01-09 10:08:00,
2013-01-09 05:12:00,69.8,68.0,30.11,SE,146,0.0,0.0,94,0.00,,,0.00,Wunderground PWS Mod,2013-01-09 10:12:00,
2013-01-09 05:18:00,69.6,67.8,30.12,SE,146,0.0,0.0,94,0.00,,,0.00,Wunderground PWS Mod,2013-01-09 10:18:00,
2013-01-09 05:24:00,69.8,68.0,30.12,SE,146,0.0,0.0,94,0.00,,,0.00,Wunderground PWS Mod,2013-01-09 10:24:00,
2013-01-09 05:30:00,69.8,68.0,30.12,SE,146,0.0,0.0,94,0.00,,,0.00,Wunderground PWS Mod,2013-01-09 10:30:00,
2013-01-09 05:32:00,69.3,67.5,30.12,N/A,-737280,0.0,0.0,94,0.00,,,0.00,Wunderground PWS Mod,2013-01-09 10:32:00,
2013-01-09 05:36:00,69.6,67.8,30.12,East,85,0.0,1.0,94,0.00,,,0.00,Wunderground PWS Mod,2013-01-09 10:36:00,
2013-01-09 05:42:00,69.6,67.8,30.12,East,85,0.0,0.0,94,0.00,,,0.00,Wunderground PWS Mod,2013-01-09 10:42:00,
2013-01-09 05:48:00,69.3,67.5,30.12,East,85,0.0,0.0,94,0.00,,,0.00,Wunderground PWS Mod,2013-01-09 10:48:00,
2013-01-09 05:54:00,69.3,67.5,30.12,East,85,0.0,0.0,94,0.00,,,0.00,Wunderground PWS Mod,2013-01-09 10:54:00,
2013-01-09 06:00:00,69.3,67.5,30.12,East,85,0.0,0.0,94,0.00,,,0.00,Wunderground PWS Mod,2013-01-09 11:00:00,
2013-01-09 06:04:00,68.9,67.4,30.12,N/A,-737280,0.0,0.0,95,0.00,,,0.00,Wunderground PWS Mod,2013-01-09 11:04:00,
2013-01-09 06:06:00,69.1,67.3,30.12,East,85,0.0,0.0,94,0.00,,,0.00,Wunderground PWS Mod,2013-01-09 11:06:00,
2013-01-09 06:12:00,68.9,67.1,30.12,East,85,0.0,0.0,94,0.00,,,0.00,Wunderground PWS Mod,2013-01-09 11:12:00,
2013-01-09 06:18:00,68.9,67.4,30.12,East,85,0.0,0.0,95,0.00,,,0.00,Wunderground PWS Mod,2013-01-09 11:18:00,
2013-01-09 06:24:00,68.9,67.4,30.12,East,85,0.0,0.0,95,0.00,,,0.00,Wunderground PWS Mod,2013-01-09 11:24:00,
2013-01-09 06:30:00,68.8,67.3,30.12,East,85,0.0,0.0,95,0.00,,,0.00,Wunderground PWS Mod,2013-01-09 11:30:00,
2013-01-09 06:36:00,68.6,67.1,30.12,East,85,0.0,0.0,95,0.00,,,0.00,Wunderground PWS Mod,2013-01-09 11:36:00,
2013-01-09 06:42:00,68.6,67.1,30.12,East,85,0.0,0.0,95,0.00,,,0.00,Wunderground PWS Mod,2013-01-09 11:42:00,
2013-01-09 06:48:00,68.4,66.9,30.13,East,85,0.0,0.0,95,0.00,,,0.00,Wunderground PWS Mod,2013-01-09 11:48:00,
2013-01-09 06:54:00,68.4,66.9,30.13,East,85,0.0,0.0,95,0.00,,,0.00,Wunderground PWS Mod,2013-01-09 11:54:00,
2013-01-09 07:00:00,68.3,66.8,30.13,East,85,0.0,0.0,95,0.00,,,0.00,Wunderground PWS Mod,2013-01-09 12:00:00,
2013-01-09 07:02:00,67.9,66.4,30.14,N/A,-737280,0.0,0.0,95,0.00,,,0.00,Wunderground PWS Mod,2013-01-09 12:02:00,
2013-01-09 07:06:00,68.1,66.6,30.14,East,85,0.0,0.0,95,0.00,,,0.00,Wunderground PWS Mod,2013-01-09 12:06:00,
2013-01-09 07:12:00,68.1,66.6,30.14,East,85,0.0,0.0,95,0.00,,,0.00,Wunderground PWS Mod,2013-01-09 12:12:00,
2013-01-09 07:18:00,67.9,66.4,30.14,East,85,0.0,0.0,95,0.00,,,0.00,Wunderground PWS Mod,2013-01-09 12:18:00,
2013-01-09 07:24:00,67.9,66.4,30.14,East,85,0.0,0.0,95,0.00,,,0.00,Wunderground PWS Mod,2013-01-09 12:24:00,
2013-01-09 07:30:00,67.8,66.3,30.14,East,85,0.0,0.0,95,0.00,,,0.00,Wunderground PWS Mod,2013-01-09 12:30:00,
2013-01-09 07:36:00,67.6,66.1,30.15,East,85,0.0,0.0,95,0.00,,,0.00,Wunderground PWS Mod,2013-01-09 12:36:00,
2013-01-09 07:42:00,67.8,66.3,30.15,East,85,0.0,0.0,95,0.00,,,0.00,Wunderground PWS Mod,2013-01-09 12:42:00,
2013-01-09 07:46:00,67.9,66.4,30.16,N/A,-737280,0.0,0.0,95,0.00,,,0.00,Wunderground PWS Mod,2013-01-09 12:46:00,
2013-01-09 07:48:00,67.8,66.3,30.16,East,85,0.0,0.0,95,0.00,,,0.00,Wunderground PWS Mod,2013-01-09 12:48:00,
2013-01-09 07:54:00,67.9,66.4,30.16,East,85,0.0,0.0,95,0.00,,,0.00,Wunderground PWS Mod,2013-01-09 12:54:00,
2013-01-09 08:00:00,67.8,66.3,30.16,East,85,0.0,0.0,95,0.00,,,0.00,Wunderground PWS Mod,2013-01-09 13:00:00,
2013-01-09 08:06:00,67.9,66.4,30.16,East,85,0.0,0.0,95,0.00,,,0.00,Wunderground PWS Mod,2013-01-09 13:06:00,
2013-01-09 08:12:00,68.4,66.9,30.16,East,85,0.0,0.0,95,0.00,,,0.00,Wunderground PWS Mod,2013-01-09 13:12:00,
2013-01-09 08:14:00,70.0,68.8,30.17,N/A,-737280,0.0,0.0,96,0.00,,,0.00,Wunderground PWS Mod,2013-01-09 13:14:00,
2013-01-09 08:18:00,68.8,67.6,30.17,East,85,0.0,0.0,96,0.00,,,0.00,Wunderground PWS Mod,2013-01-09 13:18:00,
2013-01-09 08:24:00,69.3,68.1,30.17,East,85,0.0,0.0,96,0.00,,,0.00,Wunderground PWS Mod,2013-01-09 13:24:00,
2013-01-09 08:30:00,69.8,68.6,30.17,East,85,0.0,0.0,96,0.00,,,0.00,Wunderground PWS Mod,2013-01-09 13:30:00,
2013-01-09 08:36:00,70.4,69.2,30.17,NNE,30,0.0,0.0,96,0.00,,,0.00,Wunderground PWS Mod,2013-01-09 13:36:00,
2013-01-09 08:42:00,70.8,69.6,30.17,NNE,15,0.0,0.0,96,0.00,,,0.00,Wunderground PWS Mod,2013-01-09 13:42:00,
2013-01-09 08:44:00,72.0,70.5,30.17,N/A,-737280,0.0,0.0,95,0.00,,,0.00,Wunderground PWS Mod,2013-01-09 13:44:00,
2013-01-09 08:48:00,71.1,69.9,30.18,NNE,16,0.0,0.0,96,0.00,,,0.00,Wunderground PWS Mod,2013-01-09 13:48:00,
2013-01-09 08:54:00,71.5,70.3,30.18,SSE,148,0.0,1.0,96,0.00,,,0.00,Wunderground PWS Mod,2013-01-09 13:54:00,
2013-01-09 09:00:00,71.8,70.3,30.18,ESE,111,0.0,0.0,95,0.00,,,0.00,Wunderground PWS Mod,2013-01-09 14:00:00,
2013-01-09 09:06:00,72.1,70.6,30.19,NNE,14,0.0,1.0,95,0.00,,,0.00,Wunderground PWS Mod,2013-01-09 14:06:00,
2013-01-09 09:12:00,72.5,71.0,30.19,SE,132,0.0,4.0,95,0.00,,,0.00,Wunderground PWS Mod,2013-01-09 14:12:00,
2013-01-09 09:18:00,72.8,71.0,30.19,WSW,257,1.0,1.0,94,0.00,,,0.00,Wunderground PWS Mod,2013-01-09 14:18:00,
2013-01-09 09:20:00,74.2,71.1,30.19,N/A,-737280,0.0,0.0,90,0.00,,,0.00,Wunderground PWS Mod,2013-01-09 14:20:00,
2013-01-09 09:24:00,73.2,71.4,30.19,SE,138,1.0,1.0,94,0.00,,,0.00,Wunderground PWS Mod,2013-01-09 14:24:00,
2013-01-09 09:30:00,73.5,71.0,30.19,SSE,151,1.0,3.0,92,0.00,,,0.00,Wunderground PWS Mod,2013-01-09 14:30:00,
2013-01-09 09:36:00,74.0,71.2,30.20,SE,130,1.0,2.0,91,0.00,,,0.00,Wunderground PWS Mod,2013-01-09 14:36:00,
2013-01-09 09:42:00,74.4,70.9,30.20,SE,128,1.0,3.0,89,0.00,,,0.00,Wunderground PWS Mod,2013-01-09 14:42:00,
2013-01-09 09:48:00,75.1,70.6,30.20,SW,219,1.0,1.0,86,0.00,,,0.00,Wunderground PWS Mod,2013-01-09 14:48:00,
2013-01-09 09:50:00,76.7,69.7,30.19,East,90,2.0,3.0,79,0.00,,,0.00,Wunderground PWS Mod,2013-01-09 14:50:00,
2013-01-09 09:54:00,75.4,70.2,30.20,South,180,1.0,4.0,84,0.00,,,0.00,Wunderground PWS Mod,2013-01-09 14:54:00,
2013-01-09 10:00:00,76.0,70.1,30.20,South,169,1.0,4.0,82,0.00,,,0.00,Wunderground PWS Mod,2013-01-09 15:00:00,
2013-01-09 10:06:00,76.5,70.2,30.19,NNE,13,1.0,1.0,81,0.00,,,0.00,Wunderground PWS Mod,2013-01-09 15:06:00,
2013-01-09 10:12:00,77.0,70.0,30.19,SSE,152,1.0,1.0,79,0.00,,,0.00,Wunderground PWS Mod,2013-01-09 15:12:00,
2013-01-09 10:18:00,77.6,69.8,30.19,SE,142,1.0,3.0,77,0.00,,,0.00,Wunderground PWS Mod,2013-01-09 15:18:00,
2013-01-09 10:24:00,77.9,69.7,30.19,NE,56,2.0,6.0,76,0.00,,,0.00,Wunderground PWS Mod,2013-01-09 15:24:00,
2013-01-09 10:30:00,78.8,69.4,30.19,ESE,113,2.0,2.0,73,0.00,,,0.00,Wunderground PWS Mod,2013-01-09 15:30:00,
2013-01-09 10:36:00,79.4,70.0,30.18,SSE,156,1.0,1.0,73,0.00,,,0.00,Wunderground PWS Mod,2013-01-09 15:36:00,
2013-01-09 10:42:00,79.6,70.2,30.18,SSW,213,1.0,6.0,73,0.00,,,0.00,Wunderground PWS Mod,2013-01-09 15:42:00,
2013-01-09 10:48:00,79.8,70.0,30.18,NW,319,1.0,5.0,72,0.00,,,0.00,Wunderground PWS Mod,2013-01-09 15:48:00,
2013-01-09 10:54:00,79.9,70.1,30.18,SW,225,1.0,4.0,72,0.00,,,0.00,Wunderground PWS Mod,2013-01-09 15:54:00,
2013-01-09 10:58:00,80.0,68.9,30.18,SW,225,2.0,4.0,69,0.00,,,0.00,Wunderground PWS Mod,2013-01-09 15:58:00,
2013-01-09 11:02:00,79.9,69.2,30.18,South,184,1.0,3.0,70,0.00,,,0.00,Wunderground PWS Mod,2013-01-09 16:02:00,
2013-01-09 11:08:00,79.8,70.0,30.18,NNW,344,0.0,4.0,72,0.00,,,0.00,Wunderground PWS Mod,2013-01-09 16:08:00,
2013-01-09 11:14:00,79.9,69.7,30.18,SE,144,1.0,4.0,71,0.00,,,0.00,Wunderground PWS Mod,2013-01-09 16:14:00,
2013-01-09 11:20:00,80.3,69.2,30.17,WSW,238,1.0,3.0,69,0.00,,,0.00,Wunderground PWS Mod,2013-01-09 16:20:00,
2013-01-09 11:26:00,81.1,70.4,30.17,ESE,122,1.0,1.0,70,0.00,,,0.00,Wunderground PWS Mod,2013-01-09 16:26:00,
2013-01-09 11:32:00,81.6,69.6,30.17,ESE,123,1.0,5.0,67,0.00,,,0.00,Wunderground PWS Mod,2013-01-09 16:32:00,
2013-01-09 11:38:00,82.2,69.7,30.16,SSE,153,1.0,4.0,66,0.00,,,0.00,Wunderground PWS Mod,2013-01-09 16:38:00,
2013-01-09 11:44:00,83.2,68.8,30.16,SSW,202,1.0,6.0,62,0.00,,,0.00,Wunderground PWS Mod,2013-01-09 16:44:00,
2013-01-09 11:50:00,83.4,69.5,30.16,NW,310,1.0,3.0,63,0.00,,,0.00,Wunderground PWS Mod,2013-01-09 16:50:00,
2013-01-09 11:56:00,82.8,68.9,30.16,SE,146,1.0,1.0,63,0.00,,,0.00,Wunderground PWS Mod,2013-01-09 16:56:00,
2013-01-09 12:02:00,82.8,68.9,30.16,WSW,247,1.0,4.0,63,0.00,,,0.00,Wunderground PWS Mod,2013-01-09 17:02:00,
2013-01-09 12:08:00,83.2,67.9,30.16,NW,318,1.0,7.0,60,0.00,,,0.00,Wunderground PWS Mod,2013-01-09 17:08:00,
2013-01-09 12:14:00,83.8,68.4,30.16,West,261,2.0,3.0,60,0.00,,,0.00,Wunderground PWS Mod,2013-01-09 17:14:00,
2013-01-09 12:20:00,84.0,68.1,30.15,SSW,196,1.0,2.0,59,0.00,,,0.00,Wunderground PWS Mod,2013-01-09 17:20:00,
2013-01-09 12:24:00,82.6,67.8,30.14,N/A,-737280,0.0,0.0,61,0.00,,,0.00,Wunderground PWS Mod,2013-01-09 17:24:00,
2013-01-09 12:26:00,84.1,68.2,30.15,WNW,294,0.0,1.0,59,0.00,,,0.00,Wunderground PWS Mod,2013-01-09 17:26:00,
2013-01-09 12:32:00,84.0,68.1,30.15,NE,42,0.0,0.0,59,0.00,,,0.00,Wunderground PWS Mod,2013-01-09 17:32:00,
2013-01-09 12:38:00,83.2,67.4,30.14,NW,313,0.0,1.0,59,0.00,,,0.00,Wunderground PWS Mod,2013-01-09 17:38:00,
2013-01-09 12:44:00,82.2,67.4,30.14,SW,217,0.0,0.0,61,0.00,,,0.00,Wunderground PWS Mod,2013-01-09 17:44:00,
2013-01-09 12:50:00,82.2,66.9,30.14,ENE,57,0.0,0.0,60,0.00,,,0.00,Wunderground PWS Mod,2013-01-09 17:50:00,
2013-01-09 12:56:00,82.2,66.9,30.14,East,95,0.0,0.0,60,0.00,,,0.00,Wunderground PWS Mod,2013-01-09 17:56:00,
2013-01-09 13:02:00,83.6,67.8,30.14,SE,128,0.0,0.0,59,0.00,,,0.00,Wunderground PWS Mod,2013-01-09 18:02:00,
2013-01-09 13:06:00,85.0,68.1,30.13,N/A,-737280,0.0,0.0,57,0.00,,,0.00,Wunderground PWS Mod,2013-01-09 18:06:00,
2013-01-09 13:08:00,84.0,66.6,30.13,North,355,0.0,0.0,56,0.00,,,0.00,Wunderground PWS Mod,2013-01-09 18:08:00,
2013-01-09 13:14:00,84.3,66.9,30.13,NE,50,0.0,0.0,56,0.00,,,0.00,Wunderground PWS Mod,2013-01-09 18:14:00,
2013-01-09 13:20:00,84.7,67.3,30.13,ESE,111,0.0,0.0,56,0.00,,,0.00,Wunderground PWS Mod,2013-01-09 18:20:00,
2013-01-09 13:26:00,85.1,67.6,30.13,WSW,238,0.0,0.0,56,0.00,,,0.00,Wunderground PWS Mod,2013-01-09 18:26:00,
2013-01-09 13:32:00,84.9,66.4,30.13,South,184,0.0,0.0,54,0.00,,,0.00,Wunderground PWS Mod,2013-01-09 18:32:00,
2013-01-09 13:38:00,84.9,66.4,30.12,North,9,0.0,0.0,54,0.00,,,0.00,Wunderground PWS Mod,2013-01-09 18:38:00,
2013-01-09 13:42:00,85.1,66.0,30.12,ENE,64,0.0,0.0,53,0.00,,,0.00,Wunderground PWS Mod,2013-01-09 18:42:00,
2013-01-09 13:44:00,85.1,66.6,30.12,ESE,109,0.0,0.0,54,0.00,,,0.00,Wunderground PWS Mod,2013-01-09 18:44:00,
2013-01-09 13:46:00,85.1,66.6,30.12,East,98,0.0,0.0,54,0.00,,,0.00,Wunderground PWS Mod,2013-01-09 18:46:00,
2013-01-09 13:48:00,84.9,66.4,30.12,East,100,0.0,0.0,54,0.00,,,0.00,Wunderground PWS Mod,2013-01-09 18:48:00,
2013-01-09 13:50:00,84.9,66.9,30.12,East,94,0.0,0.0,55,0.00,,,0.00,Wunderground PWS Mod,2013-01-09 18:50:00,
2013-01-09 13:52:00,84.9,65.9,30.12,NNE,22,0.0,0.0,53,0.00,,,0.00,Wunderground PWS Mod,2013-01-09 18:52:00,
2013-01-09 13:54:00,85.1,67.1,30.12,ESE,104,0.0,0.0,55,0.00,,,0.00,Wunderground PWS Mod,2013-01-09 18:54:00,
2013-01-09 13:56:00,84.9,68.0,30.11,N/A,-737280,0.0,0.0,57,0.00,,,0.00,Wunderground PWS Mod,2013-01-09 18:56:00,
2013-01-09 14:00:00,85.5,67.5,30.12,ENE,63,0.0,0.0,55,0.00,,,0.00,Wunderground PWS Mod,2013-01-09 19:00:00,
2013-01-09 14:06:00,85.9,66.8,30.11,NNW,329,0.0,0.0,53,0.00,,,0.00,Wunderground PWS Mod,2013-01-09 19:06:00,
2013-01-09 14:12:00,85.1,67.1,30.11,WSW,240,0.0,0.0,55,0.00,,,0.00,Wunderground PWS Mod,2013-01-09 19:12:00,
2013-01-09 14:18:00,84.5,67.1,30.11,WNW,289,0.0,0.0,56,0.00,,,0.00,Wunderground PWS Mod,2013-01-09 19:18:00,
2013-01-09 14:24:00,84.7,66.7,30.11,South,179,0.0,0.0,55,0.00,,,0.00,Wunderground PWS Mod,2013-01-09 19:24:00,
2013-01-09 14:28:00,84.6,67.7,30.11,N/A,-737280,0.0,0.0,57,0.00,,,0.00,Wunderground PWS Mod,2013-01-09 19:28:00,
2013-01-09 14:30:00,84.5,66.6,30.11,NNW,345,0.0,0.0,55,0.00,,,0.00,Wunderground PWS Mod,2013-01-09 19:30:00,
2013-01-09 14:36:00,84.5,66.6,30.11,West,259,0.0,0.0,55,0.00,,,0.00,Wunderground PWS Mod,2013-01-09 19:36:00,
2013-01-09 14:42:00,84.9,68.0,30.11,SW,230,0.0,0.0,57,0.00,,,0.00,Wunderground PWS Mod,2013-01-09 19:42:00,
2013-01-09 14:48:00,84.5,67.6,30.11,SW,218,0.0,0.0,57,0.00,,,0.00,Wunderground PWS Mod,2013-01-09 19:48:00,
2013-01-09 14:54:00,84.0,67.6,30.11,SW,222,0.0,0.0,58,0.00,,,0.00,Wunderground PWS Mod,2013-01-09 19:54:00,
2013-01-09 15:00:00,83.8,67.4,30.11,SW,230,0.0,0.0,58,0.00,,,0.00,Wunderground PWS Mod,2013-01-09 20:00:00,
2013-01-09 15:02:00,84.9,64.8,30.11,N/A,-737280,0.0,0.0,51,0.00,,,0.00,Wunderground PWS Mod,2013-01-09 20:02:00,
2013-01-09 15:06:00,84.0,67.1,30.11,SW,232,0.0,0.0,57,0.00,,,0.00,Wunderground PWS Mod,2013-01-09 20:06:00,
2013-01-09 15:12:00,84.7,65.7,30.11,South,171,0.0,0.0,53,0.00,,,0.00,Wunderground PWS Mod,2013-01-09 20:12:00,
2013-01-09 15:18:00,84.9,65.3,30.11,SSW,209,0.0,0.0,52,0.00,,,0.00,Wunderground PWS Mod,2013-01-09 20:18:00,
2013-01-09 15:24:00,84.9,66.4,30.11,ENE,67,0.0,0.0,54,0.00,,,0.00,Wunderground PWS Mod,2013-01-09 20:24:00,
2013-01-09 15:30:00,84.9,66.4,30.11,SSE,150,0.0,0.0,54,0.00,,,0.00,Wunderground PWS Mod,2013-01-09 20:30:00,
2013-01-09 15:34:00,83.8,65.4,30.11,N/A,-737280,0.0,0.0,54,0.00,,,0.00,Wunderground PWS Mod,2013-01-09 20:34:00,
2013-01-09 15:36:00,84.9,66.9,30.11,North,350,0.0,0.0,55,0.00,,,0.00,Wunderground PWS Mod,2013-01-09 20:36:00,
2013-01-09 15:42:00,84.5,66.0,30.11,NNE,30,0.0,0.0,54,0.00,,,0.00,Wunderground PWS Mod,2013-01-09 20:42:00,
2013-01-09 15:48:00,84.1,65.7,30.11,ESE,110,0.0,0.0,54,0.00,,,0.00,Wunderground PWS Mod,2013-01-09 20:48:00,
2013-01-09 15:54:00,84.0,66.1,30.11,ENE,57,0.0,0.0,55,0.00,,,0.00,Wunderground PWS Mod,2013-01-09 20:54:00,
2013-01-09 15:58:00,82.4,65.6,30.12,N/A,-737280,0.0,0.0,57,0.00,,,0.00,Wunderground PWS Mod,2013-01-09 20:58:00,
2013-01-09 16:00:00,83.8,64.8,30.11,NNW,335,0.0,0.0,53,0.00,,,0.00,Wunderground PWS Mod,2013-01-09 21:00:00,
2013-01-09 16:06:00,83.2,64.3,30.12,NNW,331,0.0,0.0,53,0.00,,,0.00,Wunderground PWS Mod,2013-01-09 21:06:00,
2013-01-09 16:12:00,82.6,65.3,30.12,NNW,331,0.0,0.0,56,0.00,,,0.00,Wunderground PWS Mod,2013-01-09 21:12:00,
2013-01-09 16:18:00,82.2,65.4,30.12,NNW,331,0.0,0.0,57,0.00,,,0.00,Wunderground PWS Mod,2013-01-09 21:18:00,
2013-01-09 16:24:00,82.0,65.8,30.12,NNW,329,0.0,0.0,58,0.00,,,0.00,Wunderground PWS Mod,2013-01-09 21:24:00,
2013-01-09 16:30:00,82.0,66.3,30.12,NNE,26,0.0,0.0,59,0.00,,,0.00,Wunderground PWS Mod,2013-01-09 21:30:00,
2013-01-09 16:36:00,82.4,65.1,30.13,NNE,26,0.0,0.0,56,0.00,,,0.00,Wunderground PWS Mod,2013-01-09 21:36:00,
2013-01-09 16:42:00,83.2,65.4,30.13,NNE,28,0.0,0.0,55,0.00,,,0.00,Wunderground PWS Mod,2013-01-09 21:42:00,
2013-01-09 16:48:00,83.2,64.8,30.13,NNE,22,0.0,0.0,54,0.00,,,0.00,Wunderground PWS Mod,2013-01-09 21:48:00,
2013-01-09 16:54:00,83.2,65.4,30.13,ENE,76,0.0,0.0,55,0.00,,,0.00,Wunderground PWS Mod,2013-01-09 21:54:00,
2013-01-09 17:00:00,82.6,65.3,30.13,NNE,31,0.0,0.0,56,0.00,,,0.00,Wunderground PWS Mod,2013-01-09 22:00:00,
2013-01-09 17:04:00,80.5,65.3,30.14,N/A,-737280,0.0,0.0,60,0.00,,,0.00,Wunderground PWS Mod,2013-01-09 22:04:00,
2013-01-09 17:06:00,82.0,65.3,30.14,East,90,0.0,0.0,57,0.00,,,0.00,Wunderground PWS Mod,2013-01-09 22:06:00,
2013-01-09 17:12:00,81.4,65.7,30.14,East,90,0.0,0.0,59,0.00,,,0.00,Wunderground PWS Mod,2013-01-09 22:12:00,
2013-01-09 17:18:00,80.9,65.2,30.14,NNW,342,0.0,0.0,59,0.00,,,0.00,Wunderground PWS Mod,2013-01-09 22:18:00,
2013-01-09 17:24:00,80.3,65.6,30.14,NNW,342,0.0,0.0,61,0.00,,,0.00,Wunderground PWS Mod,2013-01-09 22:24:00,
2013-01-09 17:26:00,78.7,65.5,30.14,N/A,-737280,0.0,0.0,64,0.00,,,0.00,Wunderground PWS Mod,2013-01-09 22:26:00,
2013-01-09 17:30:00,79.9,65.7,30.14,NNW,342,0.0,0.0,62,0.00,,,0.00,Wunderground PWS Mod,2013-01-09 22:30:00,
2013-01-09 17:36:00,79.4,65.7,30.14,NNW,342,0.0,0.0,63,0.00,,,0.00,Wunderground PWS Mod,2013-01-09 22:36:00,
2013-01-09 17:42:00,78.8,65.1,30.14,NNW,342,0.0,0.0,63,0.00,,,0.00,Wunderground PWS Mod,2013-01-09 22:42:00,
2013-01-09 17:48:00,78.5,65.3,30.14,ENE,63,0.0,0.0,64,0.00,,,0.00,Wunderground PWS Mod,2013-01-09 22:48:00,
2013-01-09 17:54:00,78.1,65.4,30.14,NE,36,0.0,0.0,65,0.00,,,0.00,Wunderground PWS Mod,2013-01-09 22:54:00,
2013-01-09 18:00:00,77.6,64.9,30.14,NE,36,0.0,0.0,65,0.00,,,0.00,Wunderground PWS Mod,2013-01-09 23:00:00,
2013-01-09 18:06:00,77.2,64.5,30.14,NE,36,0.0,0.0,65,0.00,,,0.00,Wunderground PWS Mod,2013-01-09 23:06:00,
2013-01-09 18:12:00,76.7,64.5,30.14,NE,36,0.0,0.0,66,0.00,,,0.00,Wunderground PWS Mod,2013-01-09 23:12:00,
2013-01-09 18:18:00,76.3,64.5,30.15,NE,36,0.0,0.0,67,0.00,,,0.00,Wunderground PWS Mod,2013-01-09 23:18:00,
2013-01-09 18:24:00,75.8,64.1,30.15,NE,36,0.0,0.0,67,0.00,,,0.00,Wunderground PWS Mod,2013-01-09 23:24:00,
2013-01-09 18:30:00,75.4,64.1,30.15,NE,36,0.0,0.0,68,0.00,,,0.00,Wunderground PWS Mod,2013-01-09 23:30:00,
2013-01-09 18:36:00,74.9,63.6,30.16,NE,36,0.0,0.0,68,0.00,,,0.00,Wunderground PWS Mod,2013-01-09 23:36:00,
2013-01-09 18:42:00,74.6,63.8,30.16,NE,36,0.0,0.0,69,0.00,,,0.00,Wunderground PWS Mod,2013-01-09 23:42:00,
2013-01-09 18:48:00,74.2,63.8,30.16,NE,36,0.0,0.0,70,0.00,,,0.00,Wunderground PWS Mod,2013-01-09 23:48:00,
2013-01-09 18:54:00,73.9,63.5,30.16,NE,36,0.0,0.0,70,0.00,,,0.00,Wunderground PWS Mod,2013-01-09 23:54:00,
2013-01-09 19:00:00,73.5,63.5,30.16,NE,36,0.0,0.0,71,0.00,,,0.00,Wunderground PWS Mod,2013-01-10 00:00:00,
2013-01-09 19:06:00,73.2,63.6,30.16,NE,36,0.0,0.0,72,0.00,,,0.00,Wunderground PWS Mod,2013-01-10 00:06:00,
2013-01-09 19:12:00,73.0,63.8,30.16,NE,36,0.0,0.0,73,0.00,,,0.00,Wunderground PWS Mod,2013-01-10 00:12:00,
2013-01-09 19:18:00,72.5,63.4,30.17,NE,36,0.0,0.0,73,0.00,,,0.00,Wunderground PWS Mod,2013-01-10 00:18:00,
2013-01-09 19:24:00,72.3,63.5,30.17,NE,36,0.0,0.0,74,0.00,,,0.00,Wunderground PWS Mod,2013-01-10 00:24:00,
2013-01-09 19:30:00,72.1,63.7,30.17,NE,36,0.0,0.0,75,0.00,,,0.00,Wunderground PWS Mod,2013-01-10 00:30:00,
2013-01-09 19:36:00,72.1,63.7,30.17,NE,36,0.0,0.0,75,0.00,,,0.00,Wunderground PWS Mod,2013-01-10 00:36:00,
2013-01-09 19:42:00,72.0,64.0,30.17,NE,36,0.0,0.0,76,0.00,,,0.00,Wunderground PWS Mod,2013-01-10 00:42:00,
2013-01-09 19:48:00,71.8,63.8,30.18,NE,36,0.0,0.0,76,0.00,,,0.00,Wunderground PWS Mod,2013-01-10 00:48:00,
2013-01-09 19:54:00,71.6,63.6,30.18,NE,36,0.0,0.0,76,0.00,,,0.00,Wunderground PWS Mod,2013-01-10 00:54:00,
2013-01-09 19:56:00,71.1,63.9,30.18,N/A,-737280,0.0,0.0,78,0.00,,,0.00,Wunderground PWS Mod,2013-01-10 00:56:00,
2013-01-09 20:00:00,71.5,63.5,30.18,NE,36,0.0,0.0,76,0.00,,,0.00,Wunderground PWS Mod,2013-01-10 01:00:00,
2013-01-09 20:06:00,71.3,63.7,30.18,NE,36,0.0,0.0,77,0.00,,,0.00,Wunderground PWS Mod,2013-01-10 01:06:00,
2013-01-09 20:12:00,71.1,63.9,30.18,NE,36,0.0,0.0,78,0.00,,,0.00,Wunderground PWS Mod,2013-01-10 01:12:00,
2013-01-09 20:18:00,71.1,63.9,30.18,NE,36,0.0,0.0,78,0.00,,,0.00,Wunderground PWS Mod,2013-01-10 01:18:00,
2013-01-09 20:20:00,70.9,64.8,30.18,N/A,-737280,0.0,0.0,81,0.00,,,0.00,Wunderground PWS Mod,2013-01-10 01:20:00,
2013-01-09 20:24:00,70.9,64.1,30.18,NE,36,0.0,0.0,79,0.00,,,0.00,Wunderground PWS Mod,2013-01-10 01:24:00,
2013-01-09 20:30:00,71.1,64.6,30.18,NE,39,0.0,0.0,80,0.00,,,0.00,Wunderground PWS Mod,2013-01-10 01:30:00,
2013-01-09 20:36:00,70.9,64.4,30.18,NE,39,0.0,0.0,80,0.00,,,0.00,Wunderground PWS Mod,2013-01-10 01:36:00,
2013-01-09 20:42:00,70.9,65.1,30.18,NE,34,0.0,0.0,82,0.00,,,0.00,Wunderground PWS Mod,2013-01-10 01:42:00,
2013-01-09 20:48:00,71.8,66.7,30.18,N/A,-737280,0.0,0.0,84,0.00,,,0.00,Wunderground PWS Mod,2013-01-10 01:48:00,
2013-01-09 20:50:00,71.3,65.9,30.18,NE,34,0.0,0.0,83,0.00,,,0.00,Wunderground PWS Mod,2013-01-10 01:50:00,
2013-01-09 20:56:00,71.5,66.1,30.18,NE,34,0.0,0.0,83,0.00,,,0.00,Wunderground PWS Mod,2013-01-10 01:56:00,
2013-01-09 21:02:00,71.6,66.5,30.18,NNE,32,0.0,0.0,84,0.00,,,0.00,Wunderground PWS Mod,2013-01-10 02:02:00,
2013-01-09 21:08:00,71.8,66.7,30.18,NNE,32,0.0,0.0,84,0.00,,,0.00,Wunderground PWS Mod,2013-01-10 02:08:00,
2013-01-09 21:14:00,71.6,66.5,30.18,NNE,32,0.0,0.0,84,0.00,,,0.00,Wunderground PWS Mod,2013-01-10 02:14:00,
2013-01-09 21:16:00,71.5,66.8,30.18,N/A,-737280,0.0,0.0,85,0.00,,,0.00,Wunderground PWS Mod,2013-01-10 02:16:00,
2013-01-09 21:20:00,71.5,66.4,30.18,NNE,32,0.0,0.0,84,0.00,,,0.00,Wunderground PWS Mod,2013-01-10 02:20:00,
2013-01-09 21:26:00,71.5,66.4,30.18,NNE,32,0.0,0.0,84,0.00,,,0.00,Wunderground PWS Mod,2013-01-10 02:26:00,
2013-01-09 21:32:00,71.3,66.6,30.18,NNE,32,0.0,0.0,85,0.00,,,0.00,Wunderground PWS Mod,2013-01-10 02:32:00,
2013-01-09 21:38:00,71.5,67.1,30.18,NE,41,0.0,0.0,86,0.00,,,0.00,Wunderground PWS Mod,2013-01-10 02:38:00,
2013-01-09 21:42:00,72.0,67.9,30.19,N/A,-737280,0.0,0.0,87,0.00,,,0.00,Wunderground PWS Mod,2013-01-10 02:42:00,
2013-01-09 21:44:00,71.6,67.2,30.18,East,79,0.0,0.0,86,0.00,,,0.00,Wunderground PWS Mod,2013-01-10 02:44:00,
2013-01-09 21:50:00,71.8,67.4,30.19,NE,40,0.0,0.0,86,0.00,,,0.00,Wunderground PWS Mod,2013-01-10 02:50:00,
2013-01-09 21:56:00,71.8,67.4,30.19,NE,40,0.0,0.0,86,0.00,,,0.00,Wunderground PWS Mod,2013-01-10 02:56:00,
2013-01-09 22:02:00,72.0,67.9,30.19,ENE,69,0.0,0.0,87,0.00,,,0.00,Wunderground PWS Mod,2013-01-10 03:02:00,
2013-01-09 22:08:00,72.0,67.6,30.19,ENE,69,0.0,0.0,86,0.00,,,0.00,Wunderground PWS Mod,2013-01-10 03:08:00,
2013-01-09 22:14:00,72.0,67.9,30.19,ENE,69,0.0,0.0,87,0.00,,,0.00,Wunderground PWS Mod,2013-01-10 03:14:00,
2013-01-09 22:20:00,72.0,67.9,30.19,ENE,69,0.0,0.0,87,0.00,,,0.00,Wunderground PWS Mod,2013-01-10 03:20:00,
2013-01-09 22:26:00,72.1,68.0,30.19,ENE,69,0.0,0.0,87,0.00,,,0.00,Wunderground PWS Mod,2013-01-10 03:26:00,
2013-01-09 22:32:00,72.3,68.2,30.19,ENE,69,0.0,0.0,87,0.00,,,0.00,Wunderground PWS Mod,2013-01-10 03:32:00,
2013-01-09 22:38:00,72.5,68.4,30.19,ENE,78,0.0,0.0,87,0.00,,,0.00,Wunderground PWS Mod,2013-01-10 03:38:00,
2013-01-09 22:44:00,72.7,68.6,30.19,ENE,59,0.0,0.0,87,0.00,,,0.00,Wunderground PWS Mod,2013-01-10 03:44:00,
2013-01-09 22:50:00,72.8,68.7,30.20,ENE,68,0.0,0.0,87,0.00,,,0.00,Wunderground PWS Mod,2013-01-10 03:50:00,
2013-01-09 22:56:00,73.0,68.9,30.20,East,79,0.0,0.0,87,0.00,,,0.00,Wunderground PWS Mod,2013-01-10 03:56:00,
2013-01-09 23:02:00,73.0,68.9,30.20,East,79,0.0,0.0,87,0.00,,,0.00,Wunderground PWS Mod,2013-01-10 04:02:00,
2013-01-09 23:08:00,73.0,68.6,30.20,East,82,0.0,0.0,86,0.00,,,0.00,Wunderground PWS Mod,2013-01-10 04:08:00,
2013-01-09 23:14:00,73.0,68.9,30.20,East,82,0.0,0.0,87,0.00,,,0.00,Wunderground PWS Mod,2013-01-10 04:14:00,
2013-01-09 23:16:00,73.0,68.6,30.20,N/A,-737280,0.0,0.0,86,0.00,,,0.00,Wunderground PWS Mod,2013-01-10 04:16:00,
2013-01-09 23:20:00,73.0,68.6,30.20,ENE,67,0.0,0.0,86,0.00,,,0.00,Wunderground PWS Mod,2013-01-10 04:20:00,
2013-01-09 23:26:00,73.0,68.6,30.20,ENE,67,0.0,0.0,86,0.00,,,0.00,Wunderground PWS Mod,2013-01-10 04:26:00,
2013-01-09 23:32:00,73.0,68.6,30.20,WSW,242,0.0,0.0,86,0.00,,,0.00,Wunderground PWS Mod,2013-01-10 04:32:00,
2013-01-09 23:38:00,73.0,68.6,30.20,West,276,0.0,0.0,86,0.00,,,0.00,Wunderground PWS Mod,2013-01-10 04:38:00,
2013-01-09 23:44:00,73.0,68.6,30.20,West,276,0.0,0.0,86,0.00,,,0.00,Wunderground PWS Mod,2013-01-10 04:44:00,
2013-01-09 23:50:00,73.2,68.8,30.20,West,276,0.0,0.0,86,0.00,,,0.00,Wunderground PWS Mod,2013-01-10 04:50:00,
2013-01-09 23:56:00,73.2,68.8,30.20,SSE,157,0.0,0.0,86,0.00,,,0.00,Wunderground PWS Mod,2013-01-10 04:56:00,